Погода в Каховке

Россия / Амурская область     50°47′29″N   129°13′09″E
темп.,
°C
ветер,
м/с
пор.,
м/с
влажн.,
%
обл.,
%
осадки,
мм/ч
давл.,
гПа
погр.,
м
10 мая, пн
пн1000:00+5зсз129488 0.0 100924
03:00+5сз2295100 0.1 100986
06:00+5сз1294100 0.3 1010118
09:00+7зсз2382100 0.4 1011491
12:00+7з3379100 0.0 1012653
15:00+8з227887 0.0 1012652
18:00+9зсз1172100 0.1 1012625
21:00+7ююв2285100 0.1 101319
11 мая, вт
вт1100:00+6ю3491100 0.0 101489
03:00+4ю239462 0.0 101453
06:00+5ююв359225 0.0 1015140
09:00+11ююв456543 0.0 1014721
12:00+14ю5547100 0.0 10131632
15:00+15ю5545100 0.0 10121623
18:00+14юв6950100 0.0 10101287
21:00+11юв81564100 0.0 1011708
12 мая, ср
ср1200:00+9юв91970100 0.0 1009684
03:00+9юв102068100 0.0 1006764
06:00+9юв112068100 0.1 10041026
09:00+9юв112181100 3.9 10011507
12:00+9юв101984100 6.7 9991296
15:00+9юв91584100 7.0 9971265
18:00+9юв81483100 1.0 9951448
21:00+7ююв71189100 2.6 995912
13 мая, чт
чт1300:00+7ююз4894100 1.3 997574
03:00+7зюз61094100 2.9 998749
06:00+6з71392100 0.5 1002660
09:00+8з6108599 0.8 1004878
12:00+14з710495 0.0 10051549
15:00+17зсз49366 0.0 10052292
18:00+17всв1246100 0.0 100458
21:00+11юв356191 0.0 100659
14 мая, пт
пт1400:00+10вюв3673100 0.1 1006103
03:00+10вюв3672100 0.1 1004123
06:00+10юв3873100 0.0 1004219
09:00+14ююв475984 0.1 1002526
12:00+17ю5760100 0.5 1000832
15:00+18ююв51251100 0.5 9951409
18:00+12ю71392100 4.9 994784
21:00+13ю51194100 5.1 993619